Weather in Pervomayka

Russia / Moscow Oblast     55°33′07″N   38°10′44″E
temp.,
°C
wind,
m/s
gust,
m/s
humid.,
%
clouds,
%
prec.,
mm/h
press.,
hPa
HPBL,
m
24 june, thu
thu2400:00+22s11730 0.0 102011
03:00+21wsw22795 0.0 102111
06:00+23wnw11795 0.0 102160
09:00+28sse11625 0.0 1020406
12:00+31ssw22525 0.0 10201034
15:00+32ssw224649 0.0 10191392
18:00+31s23565 0.0 1018823
21:00+25sw35778 0.0 101877
25 june, fri
fri2500:00+23sw3478100 0.0 101850
03:00+21wsw2385100 0.0 101829
06:00+22wsw248119 0.0 1017106
09:00+27ssw33677 0.0 1017429
12:00+30ssw345549 0.0 10171221
15:00+31s33485 0.0 10161711
18:00+29sse57650 0.0 1014523
21:00+24sw410832 0.4 1014196
26 june, sat
sat2600:00+20w2277100 0.1 101414
03:00+19s227947 0.1 101419
06:00+21sw35847 0.0 1014147
09:00+26wsw346745 0.0 1014472
12:00+29sw23565 0.0 1013926
15:00+30ssw33515 0.0 10131277
18:00+30s345993 0.0 1012369
21:00+24sw37775 0.0 1012105
27 june, sun
sun2700:00+22wsw35795 0.2 101286
03:00+20wnw24944 2.2 101372
06:00+22s228872 0.0 101391
09:00+26wsw23701 0.0 1013455
12:00+29sw22566 0.0 1013951
15:00+31ssw335097 0.0 10131498
18:00+30s33615 0.0 1011685
21:00+24ssw33825 0.1 101232
28 june, mon
mon2800:00+22ssw11855 0.0 101211
03:00+21ssw229062 1.6 101212
06:00+22s23905 1.6 1011119
09:00+27sw346913 1.6 1012559
12:00+29w336083 0.6 1012969
15:00+27wnw5663100 1.9 1012643
18:00+26w236737 0.1 1011213
21:00+21nnw2290100 2.0 101138